Regional Weather Roundup
Issued by NWS Sioux Falls, SD

Home | Current Version | Previous Version | Graphics & Text | Print | Product List | Glossary On
Versions: 1 2 3 4 5 6 7 8 9 10 11 12 13 14 15 16 17 18 19 20 21 22 23 24 25 26 27 28 29 30 31 32 33 34 35 36 37 38 39 40 41 42 43 44 45 46 47 48 49 50
000
ASUS43 KFSD 011710
RWRFSD

WEATHER ROUNDUP FOR SE SOUTH DAKOTA/SW MINNESOTA/NW IOWA
NATIONAL WEATHER SERVICE SIOUX FALLS SD
1200 PM CDT WED JUL 01 2015

NOTE: "FAIR" INDICATES FEW OR NO CLOUDS BELOW 12,000 FEET WITH NO
SIGNIFICANT WEATHER AND OR OBSTRUCTIONS TO VISIBILITY.


SDZ038>040-050-052>070-011800-
SOUTHEAST SOUTH DAKOTA

CITY           SKY/WX    TMP DP  RH WIND       PRES   REMARKS
BROOKINGS      PTSUNNY   66  57  72 E14       29.97S
CHAMBERLAIN    CLOUDY    74  65  74 SE10      29.91R
HURON          MOSUNNY   75  66  73 SE9       29.90F
MADISON        CLOUDY    68  66  94 SE13      29.95S
MITCHELL       PTSUNNY   74  67  78 SE12      29.91S
SIOUX FALLS    CLOUDY    69  63  81 SE12      29.94R
WINNER         FAIR      81  64  56 NE5       29.90R
YANKTON        CLOUDY    72  64  78 E10       29.90R
$$

MNZ071-072-080-081-089-090-097-098-011800-
SOUTHWEST MINNESOTA

CITY           SKY/WX    TMP DP  RH WIND       PRES   REMARKS
FAIRMONT       CLOUDY    64  54  68 E8        29.99R
JACKSON        LGT RAIN  64  59  82 E9        30.00R
LUVERNE        PTSUNNY   70  61  73 E13       29.95S
MARSHALL       CLOUDY    64  55  72 SE9       29.97
MONTEVIDEO     PTSUNNY   66  57  72 S9        29.99S
PIPESTONE      PTSUNNY   66  57  72 SE10      29.97R
REDWOOD FALLS  CLOUDY    62  57  83 E6        29.99S
TRACY          CLOUDY    65  60  86 SE8       29.99S
WINDOM         CLOUDY    64  57  77 E8        29.99S
WORTHINGTON    CLOUDY    63  55  77 E13       29.98S
$$

IAZ001>003-012>014-020>022-031-032-NEZ013-014-SDZ071-011800-
NORTHWEST IOWA

CITY           SKY/WX    TMP DP  RH WIND       PRES   REMARKS
CHEROKEE       RAIN      68  65  89 SE8       29.94F
DENISON        LGT RAIN  70  66  88 N7        29.94R
ESTHERVILLE    CLOUDY    63  57  81 E8        29.99R
LE MARS        CLOUDY    70  66  88 E8        29.93S
ORANGE CITY    PTSUNNY   68  63  83 E8        29.94S
SHELDON        CLOUDY    66  66 100 E13       29.95S
SIOUX CITY     PTSUNNY   73  66  78 E9        29.91R
SPENCER        LGT RAIN  66  58  75 E10       29.98R
STORM LAKE     CLOUDY    68  63  83 S7        29.98R
$$

ABBREVIATIONS USED IN REMARKS
   TC - TEMPERATURE IN CELSIUS
  WCI - WIND CHILL INDEX
   HX - HEAT INDEX
  VSB - VISIBILITY



USA.gov is the U.S. government's official web portal to all federal, state and local government web resources and services.